Year,Month,Day,Hour,Minute,Value (Times are PST for temperature in C)
2008,06,17,00,15,10.90
2008,06,17,00,16,10.90
2008,06,17,00,17,10.90
2008,06,17,00,18,10.90
2008,06,17,00,19,10.90
2008,06,17,00,20,10.90
2008,06,17,00,21,10.90
2008,06,17,00,22,10.90
2008,06,17,00,23,10.90
2008,06,17,00,24,10.90
2008,06,17,00,25,10.90
2008,06,17,00,26,10.90
2008,06,17,00,27,10.90
2008,06,17,00,28,10.90
2008,06,17,00,29,10.90
2008,06,17,00,30,10.90
2008,06,17,00,31,10.90
2008,06,17,00,32,10.90
2008,06,17,00,33,10.90
2008,06,17,00,34,10.90
2008,06,17,00,35,10.90
2008,06,17,00,36,10.90
2008,06,17,00,37,10.90
2008,06,17,00,38,10.90
2008,06,17,00,39,10.90
2008,06,17,00,40,10.90
2008,06,17,00,41,10.90
2008,06,17,00,42,10.90
2008,06,17,00,43,10.90
2008,06,17,00,44,10.90
2008,06,17,00,45,10.90
2008,06,17,00,46,11.10
2008,06,17,00,47,11.10
2008,06,17,00,48,11.10
2008,06,17,00,49,11.10
2008,06,17,00,50,11.10
2008,06,17,00,51,11.10
2008,06,17,00,52,11.10
2008,06,17,00,53,11.10
2008,06,17,00,54,11.10
2008,06,17,00,55,11.20
2008,06,17,00,56,11.20
2008,06,17,00,57,11.30
2008,06,17,00,58,11.30
2008,06,17,00,59,11.30
2008,06,17,01,00,11.30
2008,06,17,01,01,11.30
2008,06,17,01,02,11.40
2008,06,17,01,03,11.40
2008,06,17,01,04,11.40
2008,06,17,01,05,11.40
2008,06,17,01,06,11.60
2008,06,17,01,07,11.60
2008,06,17,01,08,11.60
2008,06,17,01,09,11.60
2008,06,17,01,10,11.60
2008,06,17,01,11,11.60
2008,06,17,01,12,11.60
2008,06,17,01,13,11.60
2008,06,17,01,14,11.60
2008,06,17,01,15,11.60
2008,06,17,01,16,11.60
2008,06,17,01,17,11.60
2008,06,17,01,18,11.60
2008,06,17,01,19,11.60
2008,06,17,01,20,11.60
2008,06,17,01,21,11.50
2008,06,17,01,22,11.40
2008,06,17,01,23,11.40
2008,06,17,01,24,11.40
2008,06,17,01,25,11.40
2008,06,17,01,26,11.40
2008,06,17,01,27,11.40
2008,06,17,01,28,11.40
2008,06,17,01,29,11.30
2008,06,17,01,30,11.30
2008,06,17,01,31,11.30
2008,06,17,01,32,11.30
2008,06,17,01,33,11.30
2008,06,17,01,34,11.30
2008,06,17,01,35,11.30
2008,06,17,01,36,11.30
2008,06,17,01,37,11.10
2008,06,17,01,38,11.10
2008,06,17,01,39,11.10
2008,06,17,01,40,11.10
2008,06,17,01,41,11.00
2008,06,17,01,42,10.90
2008,06,17,01,43,10.90
2008,06,17,01,44,10.90
2008,06,17,01,45,10.90
2008,06,17,01,46,10.90
2008,06,17,01,47,10.80
2008,06,17,01,48,10.80
2008,06,17,01,49,10.80
2008,06,17,01,50,10.80
2008,06,17,01,51,10.70
2008,06,17,01,52,10.70
2008,06,17,01,53,10.70
2008,06,17,01,54,10.70
2008,06,17,01,55,10.70
2008,06,17,01,56,10.70
2008,06,17,01,57,10.70
2008,06,17,01,58,10.70
2008,06,17,01,59,10.70
2008,06,17,02,00,10.70
2008,06,17,02,01,10.70
2008,06,17,02,02,10.70
2008,06,17,02,03,10.70
2008,06,17,02,04,10.70
2008,06,17,02,05,10.70
2008,06,17,02,06,10.70
2008,06,17,02,07,10.70
2008,06,17,02,08,10.70
2008,06,17,02,09,10.70
2008,06,17,02,10,10.60
2008,06,17,02,11,10.60
2008,06,17,02,12,10.60
2008,06,17,02,13,10.60
2008,06,17,02,14,10.60
2008,06,17,02,15,10.60
2008,06,17,02,16,10.60
2008,06,17,02,17,10.60
2008,06,17,02,18,10.60
2008,06,17,02,19,10.60
2008,06,17,02,20,10.60
2008,06,17,02,21,10.60
2008,06,17,02,22,10.60
2008,06,17,02,23,10.60
2008,06,17,02,24,10.60
2008,06,17,02,25,10.60
2008,06,17,02,26,10.60
2008,06,17,02,27,10.60
2008,06,17,02,28,10.60
2008,06,17,02,29,10.60
2008,06,17,02,30,10.60
2008,06,17,02,31,10.60
2008,06,17,02,32,10.60
2008,06,17,02,33,10.60
2008,06,17,02,34,10.60
2008,06,17,02,35,10.60
2008,06,17,02,36,10.50
2008,06,17,02,37,10.40
2008,06,17,02,38,10.40
2008,06,17,02,39,10.40
2008,06,17,02,40,10.40
2008,06,17,02,41,10.40
2008,06,17,02,42,10.40
2008,06,17,02,43,10.40
2008,06,17,02,44,10.40
2008,06,17,02,45,10.40
2008,06,17,02,46,10.40
2008,06,17,02,47,10.40
2008,06,17,02,48,10.40
2008,06,17,02,49,10.40
2008,06,17,02,50,10.40
2008,06,17,02,51,10.40
2008,06,17,02,52,10.40
2008,06,17,02,53,10.40
2008,06,17,02,54,10.40
2008,06,17,02,55,10.40
2008,06,17,02,56,10.40
2008,06,17,02,57,10.40
2008,06,17,02,58,10.40
2008,06,17,02,59,10.40
2008,06,17,03,00,10.40
2008,06,17,03,01,10.40
2008,06,17,03,02,10.40
2008,06,17,03,03,10.40
2008,06,17,03,04,10.40
2008,06,17,03,05,10.40
2008,06,17,03,06,10.40
2008,06,17,03,07,10.40
2008,06,17,03,08,10.40
2008,06,17,03,09,10.40
2008,06,17,03,26,10.30
2008,06,17,03,27,10.30
2008,06,17,03,28,10.30
2008,06,17,03,29,10.30
2008,06,17,03,30,10.30
2008,06,17,03,31,10.30
2008,06,17,03,32,10.20
2008,06,17,03,33,10.20
2008,06,17,03,34,10.20
2008,06,17,03,35,10.20
2008,06,17,03,36,10.20
2008,06,17,03,37,10.20
2008,06,17,03,38,10.10
2008,06,17,03,39,10.10
2008,06,17,03,40,10.10
2008,06,17,03,41,10.10
2008,06,17,03,42,10.10
2008,06,17,03,43,10.10
2008,06,17,03,44,10.10
2008,06,17,03,45,10.10
2008,06,17,03,46,10.10
2008,06,17,03,47,10.10
2008,06,17,03,48,10.10
2008,06,17,03,49,10.10
2008,06,17,03,50,10.10
2008,06,17,03,51,10.10
2008,06,17,03,52,10.10
2008,06,17,03,53,10.10
2008,06,17,03,54,10.10
2008,06,17,03,55,10.10
2008,06,17,03,56,10.10
2008,06,17,03,57,10.10
2008,06,17,03,58,10.10
2008,06,17,03,59,10.10
2008,06,17,04,00,10.20
2008,06,17,04,01,10.20
2008,06,17,04,02,10.20
2008,06,17,04,03,10.20
2008,06,17,04,04,10.20
2008,06,17,04,05,10.20
2008,06,17,04,06,10.20
2008,06,17,04,07,10.20
2008,06,17,04,08,10.30
2008,06,17,04,09,10.30
2008,06,17,04,10,10.30
2008,06,17,04,11,10.30
2008,06,17,04,12,10.30
2008,06,17,04,13,10.30
2008,06,17,04,14,10.30
2008,06,17,04,15,10.30
2008,06,17,04,16,10.40
2008,06,17,04,17,10.40
2008,06,17,04,18,10.40
2008,06,17,04,19,10.40
2008,06,17,04,20,10.40
2008,06,17,04,21,10.30
2008,06,17,04,22,10.30
2008,06,17,04,23,10.30
2008,06,17,04,24,10.30
2008,06,17,04,25,10.30
2008,06,17,04,26,10.30
2008,06,17,04,27,10.30
2008,06,17,04,28,10.30
2008,06,17,04,29,10.30
2008,06,17,04,30,10.30
2008,06,17,04,31,10.30
2008,06,17,04,32,10.20
2008,06,17,04,33,10.20
2008,06,17,04,34,10.20
2008,06,17,04,35,10.20
2008,06,17,04,36,10.20
2008,06,17,04,37,10.20
2008,06,17,04,38,10.20
2008,06,17,04,39,10.20
2008,06,17,04,40,10.20
2008,06,17,04,41,10.20
2008,06,17,04,42,10.20
2008,06,17,04,43,10.20
2008,06,17,04,44,10.20
2008,06,17,04,45,10.20
2008,06,17,04,46,10.20
2008,06,17,04,47,10.20
2008,06,17,04,48,10.20
2008,06,17,04,49,10.20
2008,06,17,04,50,10.20
2008,06,17,04,51,10.20
2008,06,17,04,52,10.20
2008,06,17,04,53,10.20
2008,06,17,04,54,10.20
2008,06,17,04,55,10.20
2008,06,17,04,56,10.20
2008,06,17,04,57,10.20
2008,06,17,04,58,10.20
2008,06,17,04,59,10.20
2008,06,17,05,00,10.20
2008,06,17,05,01,10.20
2008,06,17,05,02,10.20
2008,06,17,05,03,10.20
2008,06,17,05,04,10.20
2008,06,17,05,05,10.20
2008,06,17,05,06,10.20
2008,06,17,05,07,10.10
2008,06,17,05,08,10.10
2008,06,17,05,09,10.10
2008,06,17,05,10,10.10
2008,06,17,05,11,10.10
2008,06,17,05,12,10.10
2008,06,17,05,13,10.10
2008,06,17,05,14,10.10
2008,06,17,05,15,10.10
2008,06,17,05,16,10.10
2008,06,17,05,17,10.10
2008,06,17,05,18,10.10
2008,06,17,05,19,10.10
2008,06,17,05,20,10.10
2008,06,17,05,21,10.10
2008,06,17,05,22,10.10
2008,06,17,05,23,10.10
2008,06,17,05,24,10.10
2008,06,17,05,25,10.10
2008,06,17,05,26,10.10
2008,06,17,05,27,10.10
2008,06,17,05,28,10.10
2008,06,17,05,29,10.10
2008,06,17,05,30,10.10
2008,06,17,05,31,10.10
2008,06,17,05,32,10.10
2008,06,17,05,33,10.10
2008,06,17,05,34,10.10
2008,06,17,05,35,10.10
2008,06,17,05,36,10.20
2008,06,17,05,37,10.20
2008,06,17,05,38,10.20
2008,06,17,05,39,10.20
2008,06,17,05,40,10.20
2008,06,17,05,41,10.20
2008,06,17,05,42,10.20
2008,06,17,05,43,10.20
2008,06,17,05,44,10.20
2008,06,17,05,45,10.20
2008,06,17,05,46,10.30
2008,06,17,05,47,10.30
2008,06,17,05,48,10.30
2008,06,17,05,49,10.30
2008,06,17,05,50,10.30
2008,06,17,05,51,10.30
2008,06,17,05,52,10.30
2008,06,17,05,53,10.30
2008,06,17,05,54,10.30
2008,06,17,05,55,10.30
2008,06,17,05,56,10.30
2008,06,17,05,57,10.30
2008,06,17,05,58,10.30
2008,06,17,05,59,10.30
2008,06,17,06,00,10.30
2008,06,17,06,01,10.30
2008,06,17,06,02,10.30
2008,06,17,06,03,10.30
2008,06,17,06,04,10.40
2008,06,17,06,05,10.40
2008,06,17,06,06,10.40
2008,06,17,06,07,10.40
2008,06,17,06,08,10.40
2008,06,17,06,09,10.40
2008,06,17,06,10,10.40
2008,06,17,06,11,10.40
2008,06,17,06,12,10.40
2008,06,17,06,13,10.40
2008,06,17,06,14,10.40
2008,06,17,06,15,10.40
2008,06,17,06,16,10.40
2008,06,17,06,17,10.40
2008,06,17,06,18,10.40
2008,06,17,06,19,10.40
2008,06,17,06,20,10.40
2008,06,17,06,21,10.40
2008,06,17,06,22,10.40
2008,06,17,06,23,10.40
2008,06,17,06,24,10.40
2008,06,17,06,25,10.40
2008,06,17,06,26,10.40
2008,06,17,06,27,10.40
2008,06,17,06,28,10.40
2008,06,17,06,29,10.40
2008,06,17,06,30,10.40
2008,06,17,06,31,10.40
2008,06,17,06,32,10.40
2008,06,17,06,33,10.40
2008,06,17,06,34,10.40
2008,06,17,06,35,10.40
2008,06,17,06,36,10.40
2008,06,17,06,37,10.40
2008,06,17,06,38,10.40
2008,06,17,06,39,10.40
2008,06,17,06,40,10.40
2008,06,17,06,41,10.40
2008,06,17,06,42,10.40
2008,06,17,06,43,10.40
2008,06,17,07,17,11.80
2008,06,17,07,18,11.80
2008,06,17,07,19,11.80
2008,06,17,07,20,11.90
2008,06,17,07,21,11.90
2008,06,17,07,22,12.00
2008,06,17,07,23,12.00
2008,06,17,07,24,12.10
2008,06,17,07,25,12.10
2008,06,17,07,26,12.10
2008,06,17,07,27,12.20
2008,06,17,07,28,12.20
2008,06,17,07,29,12.30
2008,06,17,07,30,12.30
2008,06,17,07,31,12.30
2008,06,17,07,32,12.30
2008,06,17,07,33,12.30
2008,06,17,07,34,12.30
2008,06,17,07,35,12.30
2008,06,17,07,36,12.30
2008,06,17,07,37,12.30
2008,06,17,07,38,12.30
2008,06,17,07,39,12.40
2008,06,17,07,40,12.40
2008,06,17,07,41,12.40
2008,06,17,07,42,12.40
2008,06,17,07,43,12.40
2008,06,17,07,44,12.40
2008,06,17,07,45,12.40
2008,06,17,07,46,12.40
2008,06,17,07,47,12.50
2008,06,17,07,48,12.50
2008,06,17,07,49,12.50
2008,06,17,07,50,12.60
2008,06,17,07,51,12.60
2008,06,17,07,52,12.60
2008,06,17,07,53,12.60
2008,06,17,07,54,12.70
2008,06,17,07,55,12.70
2008,06,17,07,56,12.70
2008,06,17,07,57,12.70
2008,06,17,07,58,12.80
2008,06,17,07,59,12.80
2008,06,17,08,00,12.80
2008,06,17,08,01,12.90
2008,06,17,08,02,13.00
2008,06,17,08,03,13.00
2008,06,17,08,04,13.10
2008,06,17,08,05,13.10
2008,06,17,08,06,13.10
2008,06,17,08,07,13.20
2008,06,17,08,08,13.20
2008,06,17,08,09,13.30
2008,06,17,08,10,13.40
2008,06,17,08,11,13.50
2008,06,17,08,12,13.50
2008,06,17,08,13,13.50
2008,06,17,08,14,13.40
2008,06,17,08,15,13.30
2008,06,17,08,16,13.20
2008,06,17,08,17,13.10
2008,06,17,08,18,13.00
2008,06,17,08,19,13.00
2008,06,17,08,20,13.00
2008,06,17,08,21,13.00
2008,06,17,08,22,13.00
2008,06,17,08,23,12.90
2008,06,17,08,24,12.90
2008,06,17,08,25,12.80
2008,06,17,08,26,12.80
2008,06,17,08,27,12.80
2008,06,17,08,28,12.70
2008,06,17,08,29,12.70
2008,06,17,08,30,12.70
2008,06,17,08,31,12.70
2008,06,17,08,32,12.70
2008,06,17,08,33,12.70
2008,06,17,08,34,12.70
2008,06,17,08,35,12.70
2008,06,17,08,36,12.70
2008,06,17,08,37,12.60
2008,06,17,08,38,12.60
2008,06,17,08,39,12.60
2008,06,17,08,40,12.60
2008,06,17,08,41,12.50
2008,06,17,08,42,12.50
2008,06,17,08,43,12.50
2008,06,17,08,44,12.50
2008,06,17,08,45,12.40
2008,06,17,08,46,12.40
2008,06,17,08,47,12.50
2008,06,17,08,48,12.50
2008,06,17,08,49,12.50
2008,06,17,08,50,12.50
2008,06,17,08,51,12.50
2008,06,17,08,52,12.60
2008,06,17,08,53,12.60
2008,06,17,08,54,12.60
2008,06,17,08,55,12.60
2008,06,17,08,56,12.60
2008,06,17,08,57,12.60
2008,06,17,08,58,12.70
2008,06,17,08,59,12.90
2008,06,17,09,00,12.90
2008,06,17,09,01,13.00
2008,06,17,09,02,13.10
2008,06,17,09,03,13.30
2008,06,17,09,04,13.20
2008,06,17,09,05,13.00
2008,06,17,09,06,12.90
2008,06,17,09,07,12.70
2008,06,17,09,08,12.50
2008,06,17,09,09,12.50
2008,06,17,09,10,12.60
2008,06,17,09,11,12.60
2008,06,17,09,12,12.60
2008,06,17,09,13,12.70
2008,06,17,09,14,12.70
2008,06,17,09,15,12.80
2008,06,17,09,16,12.80
2008,06,17,09,17,12.80
2008,06,17,09,18,12.80
2008,06,17,09,19,12.80
2008,06,17,09,20,12.20
2008,06,17,09,21,12.00
2008,06,17,09,22,11.90
2008,06,17,09,23,11.80
2008,06,17,09,24,11.80
2008,06,17,09,25,11.80
2008,06,17,09,26,11.80
2008,06,17,09,27,11.70
2008,06,17,09,28,11.70
2008,06,17,09,29,11.70
2008,06,17,09,30,11.70
2008,06,17,09,31,11.60
2008,06,17,09,32,11.60
2008,06,17,09,33,11.60
2008,06,17,09,34,11.60
2008,06,17,09,35,11.60
2008,06,17,09,36,11.60
2008,06,17,09,37,11.60
2008,06,17,09,38,11.60
2008,06,17,09,39,11.60
2008,06,17,09,40,11.70
2008,06,17,09,41,11.70
2008,06,17,09,42,11.70
2008,06,17,09,43,11.70
2008,06,17,09,44,11.80
2008,06,17,09,45,11.70
2008,06,17,09,46,11.70
2008,06,17,09,47,11.60
2008,06,17,09,48,11.60
2008,06,17,09,49,11.60
2008,06,17,09,50,11.60
2008,06,17,09,51,11.60
2008,06,17,09,52,11.70
2008,06,17,09,53,11.70
2008,06,17,09,54,11.70
2008,06,17,09,55,11.80
2008,06,17,09,56,11.80
2008,06,17,09,57,11.80
2008,06,17,09,58,11.80
2008,06,17,09,59,11.70
2008,06,17,10,00,11.70
2008,06,17,10,01,11.70
2008,06,17,10,02,11.70
2008,06,17,10,03,11.70
2008,06,17,10,04,11.70
2008,06,17,10,05,11.70
2008,06,17,10,06,11.60
2008,06,17,10,07,11.60
2008,06,17,10,08,11.60
2008,06,17,10,09,11.60
2008,06,17,10,10,11.70
2008,06,17,10,11,11.70
2008,06,17,10,12,11.70
2008,06,17,10,13,11.80
2008,06,17,10,14,11.80
2008,06,17,10,15,11.90
2008,06,17,10,16,12.00
2008,06,17,10,17,12.10
2008,06,17,10,18,12.20
2008,06,17,10,19,12.20
2008,06,17,10,20,12.30
2008,06,17,10,21,12.30
2008,06,17,10,22,12.30
2008,06,17,10,23,12.30
2008,06,17,10,24,12.40
2008,06,17,10,25,12.30
2008,06,17,10,26,12.30
2008,06,17,10,27,12.50
2008,06,17,10,28,12.70
2008,06,17,10,29,12.80
2008,06,17,10,30,12.90
2008,06,17,10,31,13.00
2008,06,17,10,32,13.10
2008,06,17,10,33,13.20
2008,06,17,10,34,13.30
2008,06,17,10,35,13.20
2008,06,17,10,36,13.20
2008,06,17,10,37,13.20
2008,06,17,10,38,13.20
2008,06,17,10,39,13.10
2008,06,17,10,40,13.00
2008,06,17,10,41,13.00
2008,06,17,10,42,13.10
2008,06,17,10,43,13.10
2008,06,17,10,44,13.10
2008,06,17,10,45,13.10
2008,06,17,10,46,13.20
2008,06,17,10,47,13.30
2008,06,17,10,48,13.40
2008,06,17,10,49,13.40
2008,06,17,10,50,13.30
2008,06,17,10,51,13.10
2008,06,17,10,52,13.00
2008,06,17,10,53,13.10
2008,06,17,10,54,13.20
2008,06,17,10,55,13.20
2008,06,17,10,56,13.10
2008,06,17,10,57,12.90
2008,06,17,10,58,12.70
2008,06,17,10,59,12.60
2008,06,17,11,00,12.50
2008,06,17,11,01,12.50
2008,06,17,11,02,12.60
2008,06,17,11,03,12.60
2008,06,17,11,04,12.70
2008,06,17,11,05,12.70
2008,06,17,11,06,12.80
2008,06,17,11,07,13.00
2008,06,17,11,08,13.10
2008,06,17,11,09,13.20
2008,06,17,11,10,13.20
2008,06,17,11,11,13.10
2008,06,17,11,12,13.00
2008,06,17,11,13,12.90
2008,06,17,11,14,12.80
2008,06,17,11,15,12.80
2008,06,17,11,16,12.80
2008,06,17,11,17,12.70
2008,06,17,11,18,12.80
2008,06,17,11,19,12.70
2008,06,17,11,20,12.70
2008,06,17,11,21,12.60
2008,06,17,11,22,12.50
2008,06,17,11,23,12.30
2008,06,17,11,24,12.30
2008,06,17,11,25,12.30
2008,06,17,11,26,12.20
2008,06,17,11,27,12.20
2008,06,17,11,28,12.30
2008,06,17,11,29,12.50
2008,06,17,11,30,12.70
2008,06,17,11,31,12.80
2008,06,17,11,32,12.60
2008,06,17,11,33,12.60
2008,06,17,11,34,12.60
2008,06,17,11,35,12.60
2008,06,17,11,36,12.60
2008,06,17,11,37,12.50
2008,06,17,11,38,12.40
2008,06,17,11,39,12.40
2008,06,17,11,40,12.30
2008,06,17,11,41,12.40
2008,06,17,11,42,12.50
2008,06,17,11,43,12.50
2008,06,17,11,44,12.50
2008,06,17,11,45,12.40
2008,06,17,11,46,12.30
2008,06,17,11,47,12.20
2008,06,17,11,48,12.10
2008,06,17,11,49,12.10
2008,06,17,11,50,12.20
2008,06,17,11,51,12.40
2008,06,17,11,52,12.50
2008,06,17,11,53,12.70
2008,06,17,11,54,12.80
2008,06,17,11,55,12.80
2008,06,17,11,56,12.90
2008,06,17,11,57,12.90
2008,06,17,11,58,12.80
2008,06,17,11,59,12.80
2008,06,17,12,00,12.70
2008,06,17,12,01,12.80
2008,06,17,12,02,12.80
2008,06,17,12,03,12.80
2008,06,17,12,04,12.80
2008,06,17,12,05,12.80
2008,06,17,12,06,12.80
2008,06,17,12,07,12.80
2008,06,17,12,08,12.80
2008,06,17,12,09,12.80
2008,06,17,12,10,12.80
2008,06,17,12,11,12.80
2008,06,17,12,12,12.80
2008,06,17,12,13,12.80
2008,06,17,12,14,12.80
2008,06,17,12,15,12.80
2008,06,17,12,16,12.60
2008,06,17,12,17,12.60
2008,06,17,12,18,12.80
2008,06,17,12,19,12.80
2008,06,17,12,20,12.70
2008,06,17,12,21,12.60
2008,06,17,12,22,12.60
2008,06,17,12,23,12.60
2008,06,17,12,24,12.80
2008,06,17,12,25,12.80
2008,06,17,12,26,12.80
2008,06,17,12,27,12.80
2008,06,17,12,28,12.80
2008,06,17,12,29,12.80
2008,06,17,12,30,12.90
2008,06,17,12,31,13.10
2008,06,17,12,32,13.00
2008,06,17,12,33,12.90
2008,06,17,12,34,12.90
2008,06,17,12,35,12.80
2008,06,17,12,36,12.70
2008,06,17,12,37,12.80
2008,06,17,12,38,12.80
2008,06,17,12,39,12.80
2008,06,17,12,40,12.70
2008,06,17,12,41,12.70
2008,06,17,12,42,12.70
2008,06,17,12,43,12.80
2008,06,17,12,44,12.90
2008,06,17,12,45,13.00
2008,06,17,12,46,13.20
2008,06,17,12,47,13.30
2008,06,17,12,48,13.40
2008,06,17,12,49,13.40
2008,06,17,12,50,13.50
2008,06,17,12,51,13.60
2008,06,17,12,52,13.70
2008,06,17,12,53,13.60
2008,06,17,12,54,13.60
2008,06,17,12,55,13.70
2008,06,17,12,56,13.60
2008,06,17,12,57,13.60
2008,06,17,12,58,13.70
2008,06,17,12,59,13.70
2008,06,17,13,00,13.60
2008,06,17,13,01,13.60
2008,06,17,13,02,13.50
2008,06,17,13,03,13.50
2008,06,17,13,04,13.60
2008,06,17,13,05,13.70
2008,06,17,13,06,13.70
2008,06,17,13,07,13.80
2008,06,17,13,08,13.80
2008,06,17,13,09,13.80
2008,06,17,13,10,13.80
2008,06,17,13,11,13.80
2008,06,17,13,12,13.90
2008,06,17,13,13,14.00
2008,06,17,13,14,14.00
2008,06,17,13,15,14.00
2008,06,17,13,16,14.00
2008,06,17,13,17,14.00
2008,06,17,13,18,14.00
2008,06,17,13,19,14.00
2008,06,17,13,20,14.00
2008,06,17,13,21,14.00
2008,06,17,13,22,14.00
2008,06,17,13,23,14.00
2008,06,17,13,56,14.10
2008,06,17,13,57,14.00
2008,06,17,13,58,13.90
2008,06,17,13,59,13.80
2008,06,17,14,00,13.70
2008,06,17,14,01,13.70
2008,06,17,14,02,13.70
2008,06,17,14,03,13.60
2008,06,17,14,04,13.70
2008,06,17,14,05,13.80
2008,06,17,14,06,13.80
2008,06,17,14,07,13.80
2008,06,17,14,08,13.80
2008,06,17,14,09,13.80
2008,06,17,14,10,13.80
2008,06,17,14,11,13.90
2008,06,17,14,12,13.90
2008,06,17,14,13,14.00
2008,06,17,14,14,14.20
2008,06,17,14,15,14.30
2008,06,17,14,16,14.40
2008,06,17,14,17,14.60
2008,06,17,14,18,14.70
2008,06,17,14,19,14.80
2008,06,17,14,20,14.80
2008,06,17,14,21,14.70
2008,06,17,14,22,14.50
2008,06,17,14,23,14.20
2008,06,17,14,24,14.00
2008,06,17,14,25,13.90
2008,06,17,14,26,13.80
2008,06,17,14,27,13.80
2008,06,17,14,28,13.80
2008,06,17,14,29,13.80
2008,06,17,14,30,13.80
2008,06,17,14,31,13.80
2008,06,17,14,32,13.80
2008,06,17,14,33,13.80
2008,06,17,14,34,13.80
2008,06,17,14,35,13.80
2008,06,17,14,36,13.80
2008,06,17,14,37,13.80
2008,06,17,14,38,13.80
2008,06,17,14,54,14.80
2008,06,17,14,55,14.80
2008,06,17,14,56,14.80
2008,06,17,14,57,14.80
2008,06,17,14,58,14.90
2008,06,17,14,59,14.90
2008,06,17,15,00,14.80
2008,06,17,15,01,14.80
2008,06,17,15,02,14.80
2008,06,17,15,03,14.80
2008,06,17,15,04,14.80
2008,06,17,15,05,14.80
2008,06,17,15,06,14.80
2008,06,17,15,07,14.80
2008,06,17,15,08,14.70
2008,06,17,15,09,14.80
2008,06,17,15,10,14.90
2008,06,17,15,11,14.90
2008,06,17,15,12,14.80
2008,06,17,15,13,14.70
2008,06,17,15,14,14.80
2008,06,17,15,15,14.90
2008,06,17,15,16,14.90
2008,06,17,15,17,15.00
2008,06,17,15,18,15.10
2008,06,17,15,19,15.10
2008,06,17,15,20,15.10
2008,06,17,15,21,15.00
2008,06,17,15,22,14.80
2008,06,17,15,23,14.70
2008,06,17,15,24,14.60
2008,06,17,15,25,14.50
2008,06,17,15,26,14.40
2008,06,17,15,27,14.40
2008,06,17,15,28,14.30
2008,06,17,15,29,14.30
2008,06,17,15,30,14.30
2008,06,17,15,31,14.30
2008,06,17,15,32,14.30
2008,06,17,15,33,14.20
2008,06,17,15,34,14.20
2008,06,17,15,35,14.10
2008,06,17,15,36,14.00
2008,06,17,15,37,14.00
2008,06,17,15,38,14.10
2008,06,17,15,39,14.30
2008,06,17,15,40,14.40
2008,06,17,15,41,14.50
2008,06,17,15,42,14.50
2008,06,17,15,43,14.50
2008,06,17,15,44,14.50
2008,06,17,15,45,14.60
2008,06,17,15,46,14.50
2008,06,17,15,47,14.50
2008,06,17,15,48,14.60
2008,06,17,15,49,14.70
2008,06,17,15,50,14.90
2008,06,17,15,51,15.00
2008,06,17,15,52,15.20
2008,06,17,15,53,15.10
2008,06,17,15,54,15.00
2008,06,17,15,55,15.00
2008,06,17,15,56,15.00
2008,06,17,15,57,15.00
2008,06,17,15,58,15.00
2008,06,17,15,59,15.00
2008,06,17,16,00,15.00
2008,06,17,16,01,15.00
2008,06,17,16,02,15.00
2008,06,17,16,03,15.00
2008,06,17,16,04,15.00
2008,06,17,16,21,14.80
2008,06,17,16,22,14.60
2008,06,17,16,23,14.60
2008,06,17,16,24,14.40
2008,06,17,16,25,14.20
2008,06,17,16,26,14.30
2008,06,17,16,27,14.30
2008,06,17,16,28,14.30
2008,06,17,16,29,14.30
2008,06,17,16,30,14.30
2008,06,17,16,31,14.20
2008,06,17,16,32,14.00
2008,06,17,16,33,14.00
2008,06,17,16,34,13.90
2008,06,17,16,35,13.90
2008,06,17,16,36,13.80
2008,06,17,16,37,13.70
2008,06,17,16,38,13.70
2008,06,17,16,39,13.70
2008,06,17,16,40,13.70
2008,06,17,16,41,13.70
2008,06,17,16,42,13.70
2008,06,17,16,43,13.80
2008,06,17,16,44,13.80
2008,06,17,16,45,13.70
2008,06,17,16,46,13.70
2008,06,17,16,47,13.80
2008,06,17,16,48,13.90
2008,06,17,16,49,14.00
2008,06,17,16,50,14.20
2008,06,17,16,51,14.30
2008,06,17,16,52,14.50
2008,06,17,16,53,14.70
2008,06,17,16,54,14.80
2008,06,17,16,55,14.80
2008,06,17,16,56,14.80
2008,06,17,16,57,14.80
2008,06,17,16,58,14.80
2008,06,17,16,59,14.80
2008,06,17,17,00,14.80
2008,06,17,17,01,14.90
2008,06,17,17,02,15.30
2008,06,17,17,03,15.30
2008,06,17,17,04,15.30
2008,06,17,17,05,15.30
2008,06,17,17,06,15.30
2008,06,17,17,07,15.30
2008,06,17,17,08,15.40
2008,06,17,17,09,15.40
2008,06,17,17,10,15.40
2008,06,17,17,11,15.30
2008,06,17,17,12,15.30
2008,06,17,17,13,15.30
2008,06,17,17,14,15.30
2008,06,17,17,15,15.30
2008,06,17,17,16,15.30
2008,06,17,17,17,15.30
2008,06,17,17,18,15.30
2008,06,17,17,19,15.30
2008,06,17,17,20,15.30
2008,06,17,17,21,15.30
2008,06,17,17,22,15.20
2008,06,17,17,23,15.20
2008,06,17,17,24,15.10
2008,06,17,17,25,15.10
2008,06,17,17,26,15.10
2008,06,17,17,27,15.10
2008,06,17,17,28,15.10
2008,06,17,17,29,15.10
2008,06,17,17,30,15.10
2008,06,17,17,31,15.10
2008,06,17,17,32,15.10
2008,06,17,17,33,15.10
2008,06,17,17,34,15.10
2008,06,17,17,35,15.10
2008,06,17,17,36,15.10
2008,06,17,17,37,15.00
2008,06,17,17,38,15.00
2008,06,17,17,39,15.00
2008,06,17,17,40,15.00
2008,06,17,17,41,15.00
2008,06,17,17,42,15.00
2008,06,17,17,43,14.90
2008,06,17,17,44,14.90
2008,06,17,17,45,14.90
2008,06,17,17,46,14.90
2008,06,17,17,47,14.90
2008,06,17,17,48,14.90
2008,06,17,17,49,14.90
2008,06,17,17,50,14.90
2008,06,17,17,51,14.90
2008,06,17,17,52,14.90
2008,06,17,17,53,14.90
2008,06,17,17,54,14.90
2008,06,17,17,55,14.80
2008,06,17,17,56,14.90
2008,06,17,17,57,14.90
2008,06,17,17,58,14.90
2008,06,17,17,59,14.90
2008,06,17,18,00,14.90
2008,06,17,18,01,14.90
2008,06,17,18,02,14.90
2008,06,17,18,03,14.90
2008,06,17,18,04,14.90
2008,06,17,18,05,14.90
2008,06,17,18,06,14.80
2008,06,17,18,07,14.80
2008,06,17,18,08,14.80
2008,06,17,18,09,14.80
2008,06,17,18,10,14.80
2008,06,17,18,11,14.80
2008,06,17,18,12,14.80
2008,06,17,18,13,14.90
2008,06,17,18,14,14.90
2008,06,17,18,15,14.90
2008,06,17,18,16,14.90
2008,06,17,18,17,14.90
2008,06,17,18,18,14.90
2008,06,17,18,19,14.90
2008,06,17,18,20,14.90
2008,06,17,18,21,14.90
2008,06,17,18,22,14.90
2008,06,17,18,23,14.90
2008,06,17,18,24,14.90
2008,06,17,18,25,14.90
2008,06,17,19,50,14.70
2008,06,17,19,51,14.70
2008,06,17,19,52,14.70
2008,06,17,19,53,14.60
2008,06,17,19,54,14.60
2008,06,17,19,55,14.60
2008,06,17,19,56,14.60
2008,06,17,19,57,14.50
2008,06,17,19,58,14.50
2008,06,17,19,59,14.50
2008,06,17,20,00,14.50
2008,06,17,20,01,14.50
2008,06,17,20,02,14.40
2008,06,17,20,03,14.40
2008,06,17,20,04,14.40
2008,06,17,20,05,14.40
2008,06,17,20,06,14.40
2008,06,17,20,07,14.40
2008,06,17,20,08,14.30
2008,06,17,20,09,14.30
2008,06,17,20,10,14.30
2008,06,17,20,11,14.20
2008,06,17,20,12,14.20
2008,06,17,20,13,14.20
2008,06,17,20,14,14.20
2008,06,17,20,15,14.20
2008,06,17,20,16,14.20
2008,06,17,20,17,14.20
2008,06,17,20,18,14.20
2008,06,17,20,19,14.20
2008,06,17,20,20,14.20
2008,06,17,20,21,14.20
2008,06,17,20,22,14.20
2008,06,17,20,23,14.20
2008,06,17,20,24,14.30
2008,06,17,20,25,14.30
2008,06,17,20,26,14.30
2008,06,17,20,27,14.40
2008,06,17,20,28,14.40
2008,06,17,20,29,14.40
2008,06,17,20,30,14.40
2008,06,17,20,31,14.40
2008,06,17,20,32,14.30
2008,06,17,20,33,14.30
2008,06,17,20,34,14.30
2008,06,17,20,35,14.30
2008,06,17,20,36,14.30
2008,06,17,20,37,14.20
2008,06,17,20,38,14.20
2008,06,17,20,39,14.20
2008,06,17,20,40,14.20
2008,06,17,20,41,14.20
2008,06,17,20,42,14.20
2008,06,17,20,43,14.20
2008,06,17,20,44,14.20
2008,06,17,20,45,14.10
2008,06,17,20,46,14.10
2008,06,17,20,47,14.10
2008,06,17,20,48,14.10
2008,06,17,20,49,14.10
2008,06,17,20,50,14.10